FW1757 Weather Reports


Display with metric or nautical units.
time (UTC)temp
F
wind
direction
speed
MPH
gust
MPH
rain 1hr
in
rain 24hr
in
rain mn
in
humidity
%
barometer
mb
20260504025534 79 145 0.0 0.0 0.00 0.00 0.00 39 1005.6
20260504025030 80 145 0.0 0.0 0.00 0.00 0.00 37 1005.6
20260504024527 81 145 0.0 0.0 0.00 0.00 0.00 35 1005.7
20260504024025 83 145 0.0 0.0 0.00 0.00 0.00 37 1005.7
20260504023524 84 145 0.0 0.0 0.00 0.00 0.00 36 1005.6
20260504023025 84 145 0.0 0.0 0.00 0.00 0.00 31 1005.6
20260504022521 85 145 0.0 0.0 0.00 0.00 0.00 30 1005.6
20260504022018 85 145 0.0 0.0 0.00 0.00 0.00 28 1005.7
20260504021517 86 146 0.0 0.0 0.00 0.00 0.00 27 1005.7
20260504021016 86 146 0.0 0.0 0.00 0.00 0.00 27 1005.8
20260504020514 87 146 0.0 0.0 0.00 0.00 0.00 27 1005.9
20260504020013 87 146 0.0 0.0 0.00 0.00 0.00 28 1005.9
20260504015513 88 146 0.0 0.0 0.00 0.00 0.00 27 1005.9
20260504015010 88 146 0.0 0.0 0.00 0.00 0.00 26 1006.0
20260504014524 88 143 0.0 0.0 0.00 0.00 0.00 27 1006.0
20260504014010 89 142 0.0 0.0 0.00 0.00 0.00 27 1006.1
20260504013506 89 142 0.0 0.0 0.00 0.00 0.00 26 1006.1
20260504013005 89 144 0.0 0.0 0.00 0.00 0.00 26 1006.2
20260504012503 89 144 0.0 0.0 0.00 0.00 0.00 25 1006.2
20260504012002 89 142 0.0 0.0 0.00 0.00 0.00 25 1006.2
20260504011601 89 140 0.0 0.0 0.00 0.00 0.00 25 1006.3
20260504011059 90 140 0.0 0.0 0.00 0.00 0.00 24 1006.3
20260504010557 90 149 0.0 0.0 0.00 0.00 0.00 24 1006.4
20260504010111 91 142 0.0 0.0 0.00 0.00 0.00 23 1006.6
20260504005559 91 62 0.0 0.0 0.00 0.00 0.00 25 1006.6
20260504005053 91 46 0.0 0.0 0.00 0.00 0.00 25 1006.6
20260504004612 91 42 0.0 0.0 0.00 0.00 0.00 25 1006.7
20260504004052 91 36 0.0 0.0 0.00 0.00 0.00 26 1006.8
20260504003552 91 134 0.0 0.0 0.00 0.00 0.00 25 1006.8
20260504003047 91 138 0.0 0.0 0.00 0.00 0.00 25 1006.8
20260504002546 91 138 0.0 0.0 0.00 0.00 0.00 25 1006.8
20260504002045 91 138 0.0 0.0 0.00 0.00 0.00 24 1006.8
20260504001544 91 142 0.0 0.0 0.00 0.00 0.00 24 1006.9
20260504001042 91 85 0.0 0.0 0.00 0.00 0.00 26 1007.0
20260504000541 91 61 0.0 0.0 0.00 0.00 0.00 26 1007.0
20260504000039 91 53 0.0 0.0 0.00 0.00 0.00 24 1007.0
20260503235537 91 36 0.0 0.0 0.00 0.00 0.00 25 1007.1
20260503235036 91 48 0.0 0.0 0.00 0.00 0.00 25 1007.1
20260503234541 91 28 0.0 0.0 0.00 0.00 0.00 25 1007.1
20260503234033 91 82 0.0 0.0 0.00 0.00 0.00 25 1007.2
20260503233531 91 85 0.0 0.0 0.00 0.00 0.00 25 1007.2
20260503233030 91 76 0.0 0.0 0.00 0.00 0.00 26 1007.3
20260503232528 91 80 0.0 0.0 0.00 0.00 0.00 25 1007.4
20260503232027 91 78 0.0 0.0 0.00 0.00 0.00 26 1007.6
20260503231530 91 73 0.0 0.0 0.00 0.00 0.00 28 1007.5
20260503231025 91 161 0.0 0.0 0.00 0.00 0.00 27 1007.7
20260503230523 90 160 0.0 0.0 0.00 0.00 0.00 26 1007.7
20260503230021 90 177 0.0 0.0 0.00 0.00 0.00 24 1007.8
20260503225520 89 157 0.0 0.0 0.00 0.00 0.00 26 1007.9
20260503225019 89 166 0.0 0.0 0.00 0.00 0.00 26 1008.1
20260503224517 89 93 0.0 0.0 0.00 0.00 0.00 25 1008.2
20260503224015 89 119 0.0 0.0 0.00 0.00 0.00 27 1008.2
20260503223513 88 161 0.0 0.0 0.00 0.00 0.00 28 1008.4
20260503223113 88 144 0.0 0.0 0.00 0.00 0.00 26 1008.4
20260503222510 88 136 0.0 0.0 0.00 0.00 0.00 28 1008.6
20260503222009 88 84 0.0 0.0 0.00 0.00 0.00 30 1008.6
20260503221508 88 74 0.0 0.0 0.00 0.00 0.00 30 1008.9
20260503221006 88 95 0.0 0.0 0.00 0.00 0.00 27 1008.8
20260503220508 88 119 0.0 0.0 0.00 0.00 0.00 26 1008.9
20260503220004 88 62 0.0 0.0 0.00 0.00 0.00 26 1008.9
20260503215501 88 62 0.0 0.0 0.00 0.00 0.00 29 1009.0
20260503215100 87 157 0.0 0.0 0.00 0.00 0.00 27 1009.0
20260503214601 87 114 0.0 0.0 0.00 0.00 0.00 29 1009.1
20260503214100 86 131 0.0 0.0 0.00 0.00 0.00 29 1009.2
20260503213556 86 104 0.0 0.0 0.00 0.00 0.00 28 1009.3
20260503213106 86 166 0.0 0.0 0.00 0.00 0.00 27 1009.4
20260503212555 86 125 0.0 0.0 0.00 0.00 0.00 29 1009.4
20260503212051 86 157 0.0 0.0 0.00 0.00 0.00 28 1009.7
20260503211551 86 155 0.0 0.0 0.00 0.00 0.00 27 1009.7
20260503211048 86 34 0.0 0.0 0.00 0.00 0.00 29 1009.8
20260503210550 86 94 0.0 0.0 0.00 0.00 0.00 28 1009.9
20260503210055 86 107 0.0 0.0 0.00 0.00 0.00 29 1010.0
20260503205547 86 180 0.0 0.0 0.00 0.00 0.00 29 1009.9
20260503205044 86 70 0.0 0.0 0.00 0.00 0.00 28 1010.0
20260503204550 86 148 0.0 0.0 0.00 0.00 0.00 29 1010.0
20260503204040 86 165 0.0 0.0 0.00 0.00 0.00 29 1010.1
20260503203538 86 67 0.0 0.0 0.00 0.00 0.00 30 1010.1
20260503203036 85 135 0.0 0.0 0.00 0.00 0.00 32 1010.1
20260503202535 85 132 0.0 0.0 0.00 0.00 0.00 32 1010.1
20260503202034 84 117 0.0 0.0 0.00 0.00 0.00 32 1010.1
20260503201532 84 191 0.0 0.0 0.00 0.00 0.00 32 1010.2
20260503201030 84 112 0.0 0.0 0.00 0.00 0.00 33 1010.4
20260503200529 84 109 0.0 0.0 0.00 0.00 0.00 32 1010.4
20260503200029 84 157 0.0 0.0 0.00 0.00 0.00 32 1010.5
20260503195526 83 148 0.0 0.0 0.00 0.00 0.00 32 1010.5
20260503195025 83 113 0.0 0.0 0.00 0.00 0.00 31 1010.6
20260503194525 83 144 0.0 0.0 0.00 0.00 0.00 33 1010.6
20260503194022 83 142 0.0 0.0 0.00 0.00 0.00 35 1010.6
20260503193521 82 156 0.0 0.0 0.00 0.00 0.00 34 1010.8
20260503193027 82 156 0.0 0.0 0.00 0.00 0.00 34 1010.9
20260503192517 82 161 0.0 0.0 0.00 0.00 0.00 35 1011.1
20260503192020 81 66 0.0 0.0 0.00 0.00 0.00 34 1011.1
20260503191516 80 125 0.0 0.0 0.00 0.00 0.00 36 1011.1
20260503191013 80 126 0.0 0.0 0.00 0.00 0.00 37 1011.2
20260503190513 79 351 0.0 0.0 0.00 0.00 0.00 42 1011.3
20260503190013 79 5 0.0 0.0 0.00 0.00 0.00 46 1011.3
20260503185508 78 5 0.0 0.0 0.00 0.00 0.00 46 1011.3
20260503185009 78 351 0.0 0.0 0.00 0.00 0.00 47 1011.5
20260503184508 77 36 0.0 0.0 0.00 0.00 0.00 50 1011.5
20260503184008 76 24 0.0 0.0 0.00 0.00 0.00 52 1011.6
20260503183503 76 24 0.0 0.0 0.00 0.00 0.00 48 1011.6
20260503183001 75 25 0.0 0.0 0.00 0.00 0.00 50 1011.7
20260503182559 75 40 0.0 0.0 0.00 0.00 0.00 51 1011.7
20260503182058 74 41 0.0 0.0 0.00 0.00 0.00 51 1011.8
20260503181559 74 41 0.0 0.0 0.00 0.00 0.00 52 1011.8
20260503181056 73 41 0.0 0.0 0.00 0.00 0.00 53 1011.9
20260503180557 73 10 0.0 0.0 0.00 0.00 0.00 54 1011.8
20260503180053 72 10 0.0 0.0 0.00 0.00 0.00 53 1011.9
20260503175550 72 17 0.0 0.0 0.00 0.00 0.00 56 1012.0
20260503175050 71 38 0.0 0.0 0.00 0.00 0.00 59 1012.0
20260503174548 71 349 0.0 0.0 0.00 0.00 0.00 58 1012.0
20260503174048 70 331 0.0 0.0 0.00 0.00 0.00 57 1012.1
20260503173545 69 269 0.0 0.0 0.00 0.00 0.00 58 1012.1
20260503173109 68 269 0.0 0.0 0.00 0.00 0.00 61 1012.1
20260503172547 68 269 0.0 0.0 0.00 0.00 0.00 60 1012.2
20260503172040 67 269 0.0 0.0 0.00 0.00 0.00 63 1012.2
20260503171541 66 269 0.0 0.0 0.00 0.00 0.00 66 1012.2
20260503171038 66 266 0.0 0.0 0.00 0.00 0.00 65 1012.3
20260503170536 65 266 0.0 0.0 0.00 0.00 0.00 66 1012.3
20260503151004 56 232 0.0 0.0 0.00 0.00 0.00 11 1012.8
20260503150603 56 232 0.0 0.0 0.00 0.00 0.00 9 1012.7
20260503131027 52 232 0.0 0.0 0.00 0.00 0.00 11 1012.3
20260503130525 52 232 0.0 0.0 0.00 0.00 0.00 9 1012.2
20260503110510 55 232 0.0 0.0 0.00 0.00 0.00 32 1012.1
20260503081551 58 232 0.0 0.0 0.00 0.00 0.00 36 1011.8
20260503081051 58 232 0.0 0.0 0.00 0.00 0.00 37 1011.7
20260503080651 58 232 0.0 0.0 0.00 0.00 0.00 38 1011.7
20260503072545 60 232 0.0 0.0 0.00 0.00 0.00 46 1011.7
20260503072043 60 232 0.0 0.0 0.00 0.00 0.00 48 1011.7
20260503071543 60 232 0.0 0.0 0.00 0.00 0.00 49 1011.8
20260503071041 60 232 0.0 0.0 0.00 0.00 0.00 50 1011.8
20260503070541 60 232 0.0 0.0 0.00 0.00 0.00 52 1011.7
20260503055037 63 232 0.0 0.0 0.00 0.00 0.00 63 1011.7
20260503054539 63 233 0.0 0.0 0.00 0.00 0.00 63 1011.7
20260503054037 63 233 0.0 0.0 0.00 0.00 0.00 64 1011.7
20260503053538 63 233 0.0 0.0 0.00 0.00 0.00 64 1011.7
20260503053039 63 233 0.0 0.0 0.00 0.00 0.00 64 1011.7
20260503052537 63 234 0.0 0.0 0.00 0.00 0.00 64 1011.7
20260503052037 64 234 0.0 0.0 0.00 0.00 0.00 64 1011.7
20260503051536 64 234 0.0 0.0 0.00 0.00 0.00 64 1011.6
20260503051037 64 234 0.0 0.0 0.00 0.00 0.00 64 1011.5
20260503050537 64 234 0.0 0.0 0.00 0.00 0.00 64 1011.6
20260503050036 64 234 0.0 0.0 0.00 0.00 0.00 64 1011.5
20260503045538 64 234 0.0 0.0 0.00 0.00 0.00 64 1011.6
20260503045038 64 234 0.0 0.0 0.00 0.00 0.00 64 1011.4
20260503044535 63 234 0.0 0.0 0.00 0.00 0.00 64 1011.5
20260503044034 63 234 0.0 0.0 0.00 0.00 0.00 64 1011.5
20260503043534 63 234 0.0 0.0 0.00 0.00 0.00 65 1011.4
20260503043040 63 277 0.0 0.0 0.00 0.00 0.00 65 1011.4
20260503042534 63 277 0.0 0.0 0.00 0.00 0.00 65 1011.3
20260503042034 64 277 0.0 0.0 0.00 0.00 0.00 65 1011.4
20260503041534 64 281 0.0 0.0 0.00 0.00 0.00 65 1011.3
20260503041033 64 281 0.0 0.0 0.00 0.00 0.00 66 1011.2
20260503040533 65 281 0.0 0.0 0.00 0.00 0.00 66 1011.1
20260503040045 65 281 0.0 0.0 0.00 0.00 0.00 66 1011.1
20260503035533 66 281 0.0 0.0 0.00 0.00 0.00 66 1010.9
20260503035033 66 281 0.0 0.0 0.00 0.00 0.00 65 1010.7
20260503034545 67 281 0.0 0.0 0.00 0.00 0.00 65 1010.6
20260503034032 67 281 0.0 0.0 0.00 0.00 0.00 65 1010.4
20260503033533 67 281 0.0 0.0 0.00 0.00 0.00 64 1010.4
20260503033039 68 281 0.0 0.0 0.00 0.00 0.00 63 1010.2
20260503032532 68 281 0.0 0.0 0.00 0.00 0.00 62 1010.2
20260503032034 69 281 0.0 0.0 0.00 0.00 0.00 61 1010.2
20260503031538 69 281 0.0 0.0 0.00 0.00 0.00 62 1009.9
20260503031032 70 281 0.0 0.0 0.00 0.00 0.00 60 1009.9
20260503030532 70 281 0.0 0.0 0.00 0.00 0.00 59 1009.9
20260503030045 71 281 0.0 0.0 0.00 0.00 0.00 58 1009.9